CAPE
3 0 1 2 11 31 22 8 4 3 8 7 17 22 20 24 18 14 9 1 12 1 0 0 0 0 7 76 101 153 103 34 51 108 134 143 139 88 192 334 216 197 196 162 111 98 65 313 302 561 1073 742 542 573
0 2 9 11 13 12 14 7 10 7 20 21 18 16 19 22 16 14 2 3 2 6 0 0 0 0 0 0 8 14 170 41 0 93 137 127 139 172 169 176 473 508 390 291 193 483 634 320 754 690 926 755 588 627
0 6 18 15 16 14 7 14 21 14 18 17 13 13 12 13 13 20 19 7 6 2 0 0 0 0 0 0 0 2 40 70 1 0 0 96 228 292 220 164 186 460 505 366 516 593 715 687 516 698 880 760 346 223
0 12 8 8 15 20 20 23 24 18 16 19 13 11 9 11 11 19 19 5 4 5 0 0 0 0 0 0 0 0 0 4 62 1 0 21 145 85 252 228 240 178 576 436 403 609 664 647 677 624 358 167 83 37
18 33 19 22 19 19 13 13 14 9 9 14 9 6 5 4 9 9 2 9 5 4 3 0 0 0 0 0 0 0 0 12 28 232 85 1 25 30 107 126 144 261 251 358 197 566 455 677 707 396 278 152 59 2
22 22 14 13 16 14 6 9 12 6 8 10 13 11 9 7 6 6 17 9 5 6 19 0 0 0 0 0 0 0 0 9 37 0 58 24 0 38 60 165 306 150 312 463 598 664 776 959 675 465 329 169 63 12
17 19 19 19 17 16 14 13 11 10 8 9 10 10 1 0 5 4 9 5 0 7 22 3 3 0 0 4 0 0 0 1 13 17 5 62 31 49 18 69 418 455 521 630 673 852 718 697 608 574 334 135 16 14
19 19 23 20 12 11 9 9 8 6 2 3 6 0 0 0 2 7 25 0 6 12 15 6 8 5 7 113 181 8 0 0 1 8 7 8 45 42 34 47 3 25 304 324 663 682 670 784 762 333 119 88 23 5
16 22 18 22 19 16 11 8 6 7 5 1 0 0 1 11 23 25 0 1 1 10 39 17 8 20 1 105 188 182 24 2 0 0 2 34 28 36 70 58 23 94 223 110 496 577 672 802 376 52 38 62 14 1
14 21 14 17 23 24 18 11 8 0 0 0 0 15 47 1 0 0 17 23 15 10 27 22 10 20 24 120 156 420 190 78 4 0 11 6 28 45 71 36 132 167 409 492 693 656 623 667 139 32 68 16 11 7
10 8 12 20 18 20 19 13 6 0 0 0 0 4 1 0 0 27 48 31 28 17 17 14 16 9 1 146 208 331 219 83 29 13 1 28 26 8 22 53 133 110 290 337 459 496 523 461 145 40 12 11 12 4
6 6 7 7 13 16 15 16 29 5 4 4 8 5 2 14 48 38 44 29 25 25 13 15 3 12 4 1 175 325 181 159 69 201 78 13 10 21 2 16 45 62 316 407 542 525 381 243 129 34 11 13 2 0
11 7 6 5 5 9 15 20 19 13 3 3 7 2 20 20 13 28 14 23 32 7 26 43 55 22 47 2 235 199 170 105 236 163 53 65 711 598 536 344 190 498 509 592 441 331 161 52 13 5 3 1 1 0
16 5 4 5 5 6 5 13 4 0 11 4 5 13 16 17 12 26 43 23 23 51 48 78 111 132 145 56 46 69 207 155 133 151 116 600 715 529 336 413 606 639 461 335 223 112 29 8 3 2 1 0 0 0
19 14 1 1 4 6 0 6 0 2 2 3 1 0 6 14 15 20 0 8 25 19 59 88 114 85 43 72 38 108 174 123 97 184 361 698 316 341 213 284 322 179 101 45 22 8 7 4 3 5 1 0 2 23
19 13 5 0 0 0 0 2 3 6 3 0 0 1 7 16 11 3 2 33 24 39 13 74 15 3 1 74 13 40 184 174 319 429 360 342 261 247 362 310 164 96 21 13 9 6 3 2 1 11 46 99 90 102
25 24 2 0 0 0 0 1 3 5 2 0 0 0 2 8 11 14 9 14 25 3 35 36 3 3 14 45 3 27 168 193 175 224 379 335 132 186 281 270 105 23 10 8 7 4 4 7 46 92 143 125 97 122
50 14 5 0 3 1 2 3 0 0 0 0 0 1 4 2 0 7 5 0 19 30 41 28 52 65 49 34 32 43 39 86 230 230 276 209 264 336 235 6 4 4 7 9 9 8 20 53 104 153 118 129 97 87
46 8 1 0 4 1 0 1 4 2 0 0 0 0 2 6 7 1 0 0 6 11 29 34 22 33 32 22 26 23 10 40 58 40 66 112 84 76 18 7 6 6 13 13 17 40 98 81 64 109 86 120 70 47
22 11 0 0 1 0 0 1 0 5 0 2 1 12 9 4 2 2 3 4 18 16 24 20 17 29 24 43 42 29 32 59 14 24 8 8 5 4 22 3 4 4 4 29 54 61 51 71 86 86 68 62 45 27
20 20 9 15 2 0 0 0 3 6 12 7 11 7 4 5 4 19 11 19 26 29 25 32 44 58 45 25 9 24 5 1 10 6 3 8 5 6 3 9 2 8 40 74 57 38 55 15 4 0 53 24 2 0
46 2 29 0 5 3 4 0 1 5 2 2 7 11 8 6 15 7 5 19 17 26 31 50 33 17 3 4 5 5 3 2 3 3 2 0 1 4 8 13 15 33 26 27 4 3 3 2 0 0 0 0 0 0
2 3 6 5 5 2 0 11 12 10 14 18 10 9 7 17 15 7 16 26 25 25 13 8 4 6 7 7 3 3 2 1 1 2 5 3 2 2 3 3 1 1 1 2 2 3 2 0 0 0 0 0 0 0
0 13 10 9 6 1 4 7 18 22 15 12 1 6 10 18 17 6 10 25 9 5 3 3 3 5 9 0 1 1 5 1 0 1 2 0 1 2 1 1 1 1 0 3 2 2 2 1 0 0 0 0 0 0
0 0 0 0 3 1 6 8 20 15 6 7 7 8 15 12 5 3 13 16 7 9 7 3 3 10 6 2 1 0 0 0 0 0 0 0 0 0 0 0 0 0 0 1 1 0 0 0 0 0 0 0 0 0
1 1 6 5 7 11 22 15 9 7 8 10 11 18 22 7 5 4 33 27 18 16 12 5 2 0 0 0 0 0 0 0 0 0 2 13 11 3 2 1 0 0 0 0 0 0 0 0 0 0 0 0 0 0
1 11 11 11 19 15 14 12 9 7 13 9 14 16 13 11 6 25 25 16 26 21 21 8 5 0 0 0 0 0 0 0 0 0 0 0 0 0 0 0 0 0 0 0 0 0 1 2 1 0 0 0 0 0
15 5 4 8 10 11 6 2 12 13 22 12 9 13 22 11 18 55 69 41 7 17 6 0 0 0 0 0 0 0 0 0 0 0 0 0 0 0 0 0 0 0 0 0 0 3 5 5 1 1 1 2 3 2
4 8 10 3 5 3 17 13 17 8 2 0 4 8 16 36 63 52 32 18 25 24 1 0 0 0 0 0 0 0 0 0 0 0 0 0 0 0 0 0 0 0 0 0 0 0 1 2 0 0 0 0 0 0
1 2 11 18 7 8 16 24 23 17 10 2 0 2 13 5 7 19 31 28 25 5 0 0 0 0 0 0 0 0 0 0 0 0 0 0 0 0 0 0 0 0 0 0 0 0 0 0 0 0 0 0 3 9
17 20 26 37 30 30 23 24 22 24 22 26 30 22 27 41 46 38 28 25 24 26 9 0 0 0 0 0 0 0 0 0 0 0 0 0 0 0 0 0 0 0 0 0 0 0 0 0 2 5 9 12 15 4
24 24 25 27 45 37 37 23 23 29 52 44 47 52 53 44 45 59 72 34 22 21 4 14 1 1 0 0 0 0 0 0 0 0 0 0 0 0 0 0 0 0 0 0 0 5 13 14 23 17 12 17 23 24
42 42 48 48 48 45 46 46 50 49 63 67 70 78 79 62 44 56 70 63 48 31 30 24 19 9 8 8 8 2 9 2 0 0 0 0 0 0 1 6 8 13 9 18 24 20 5 2 0 19 35 38 39 45
CIN
-11 0 -4 -3 -1 0 0 -1 -4 -1 0 0 0 -1 0 0 -1 -1 0 -1 0 0 0 0 0 0 -28 -18 0 -4 -11 -46 -19 -1 0 -1 0 0 -3 -3 0 0 0 0 0 0 0 -64 -52 -7 -20 -56 -67 -61
0 0 0 0 0 0 0 0 0 0 0 0 0 0 0 0 -1 -2 0 0 0 0 0 0 0 0 0 0 -76 -66 -11 -27 0 -31 -1 -1 0 0 0 0 -32 -3 -4 -1 -1 -3 -65 -96 -27 -49 -9 -4 -17 -16
0 0 0 0 0 0 0 0 0 0 0 0 0 0 0 0 -1 0 0 0 0 0 0 0 0 0 0 0 0 -2 -23 -20 -98 -21 -8 -23 -2 0 0 0 0 -9 -30 -3 -11 -13 -14 -21 -45 -7 0 0 -17 -36
0 0 0 0 0 0 0 0 0 0 0 0 0 0 0 0 0 0 0 0 0 0 0 0 0 0 0 0 0 0 0 -49 -42 -33 0 -12 -2 -23 0 -13 0 -4 -6 0 0 -1 -7 -3 -1 -3 -21 -44 -59 -76
-2 0 -1 0 0 0 0 0 0 0 0 0 0 0 0 0 0 0 0 0 0 0 0 0 0 0 0 0 0 0 0 -55 -7 -3 -14 -3 -3 -27 -8 -5 0 -1 0 0 0 -1 -2 -2 -7 -27 -38 -49 -57 0
-2 -2 0 0 0 0 0 0 0 0 0 0 0 0 0 0 0 0 0 0 0 0 0 0 0 0 0 0 0 0 0 -62 -18 0 -5 -50 0 -9 0 0 0 -1 -11 -7 0 -2 -10 -1 -2 -2 -13 -30 -49 0
0 0 0 0 0 0 0 0 0 0 0 0 0 0 0 0 0 0 0 0 0 0 0 0 0 0 0 -1 0 0 0 -9 -26 -3 0 -1 -9 0 -9 -2 0 -2 -9 -16 -15 -20 -34 -24 -17 -8 -26 -52 -12 0
0 0 0 0 0 0 0 0 0 0 0 0 0 0 -2 0 0 -1 0 0 0 0 0 0 0 0 -10 0 0 -4 0 0 -17 -5 0 -1 0 0 -3 -3 -18 -27 -16 -24 -14 -18 -4 -2 -3 -38 -81 -59 -88 0
0 0 0 0 0 0 0 0 0 0 0 0 0 0 0 -1 0 0 0 0 0 0 0 0 0 0 -1 0 0 -1 -1 0 0 0 0 0 0 -4 -30 -51 -34 -36 -21 -26 -13 -19 -3 0 -26 -113 -105 -60 -19 0
0 0 0 0 0 0 0 0 0 0 0 0 0 0 0 0 0 0 0 0 0 0 0 0 0 0 0 0 0 0 0 0 0 0 0 0 0 -1 -53 -14 -9 -15 -7 0 0 -6 -5 0 -64 -99 -69 -81 0 0
0 0 0 0 0 0 0 0 0 0 0 0 0 0 0 0 0 0 0 0 0 0 0 0 0 0 -1 -1 0 0 0 0 0 0 0 -5 -11 -21 -22 -6 -6 -12 -5 -2 0 0 -1 -1 -44 -82 -18 0 0 0
0 0 0 0 0 0 0 0 0 -1 0 -1 0 0 0 0 0 0 0 0 0 0 -1 0 -3 0 -1 -9 0 0 0 -1 -1 0 -2 -27 -41 -13 0 -22 -30 -20 -3 -7 -2 -2 -4 -11 -29 -42 0 0 0 0
0 0 0 0 0 0 0 0 0 0 -2 0 0 0 0 0 0 0 0 0 0 0 0 0 0 0 -1 0 0 0 0 0 0 0 -24 -7 -5 -6 -1 -1 -1 -3 0 0 -9 -13 -36 -61 0 0 0 0 0 0
-1 0 0 0 0 0 0 0 0 0 0 0 0 0 0 0 0 0 0 -1 0 0 0 0 0 -3 0 0 0 0 0 -2 0 0 0 -1 0 -10 -43 -16 0 0 -1 -20 -31 -47 -73 0 0 0 0 -1 0 0
-2 -2 0 0 0 0 0 0 0 0 0 0 0 0 0 0 0 0 -14 0 0 0 0 -1 0 0 0 0 -1 -3 0 0 0 0 -1 0 -12 -13 -31 -15 -1 -11 -41 -77 -89 -67 0 0 0 0 -1 -7 -23 -17
-2 0 0 0 0 0 0 -1 0 0 0 0 0 0 0 0 0 0 0 0 0 0 -3 0 0 0 0 -7 0 0 0 0 0 0 0 0 -9 -7 0 0 -3 -16 -18 0 0 0 0 0 -4 -6 -2 0 0 0
0 0 -1 0 0 0 0 0 0 0 0 0 0 0 0 0 0 0 0 0 0 0 0 0 0 0 -1 -3 0 -3 0 0 0 0 -1 0 -1 -1 0 0 0 -14 0 0 0 -1 -5 -9 -6 -1 0 -1 0 -3
0 -1 -3 0 0 0 0 0 0 0 0 0 0 0 0 0 0 0 -1 0 0 0 0 -1 0 0 -15 -5 -1 0 0 0 0 0 0 0 0 0 0 -2 0 0 0 0 -1 -6 -5 -1 0 0 -2 -5 -12 -15
0 -1 -8 0 -1 0 0 0 0 0 0 0 0 0 0 0 0 -2 0 0 0 0 0 0 0 -1 -1 -1 0 -1 -1 -2 0 0 -7 0 0 0 -3 -7 -12 -1 -1 -6 -9 -2 0 -2 -10 -5 -3 0 0 -14
-2 -7 -1 0 -1 0 0 0 0 0 0 0 0 0 0 0 0 0 0 0 0 0 0 0 0 0 0 0 0 0 0 0 0 0 -1 -9 -1 -1 -1 -1 -1 -5 -3 -1 -7 -5 -3 -3 -2 -1 -37 -48 -53 -44
0 0 0 -1 0 0 0 0 0 0 0 0 0 0 0 0 0 0 0 -2 0 0 0 0 0 0 0 -1 0 0 0 0 -22 0 0 0 0 0 0 -1 -2 -13 0 0 0 -10 -2 -44 -1 -1 -25 -36 -51 0
0 -3 0 0 0 0 0 0 0 0 0 0 0 0 0 0 0 0 0 0 0 0 0 0 0 0 0 0 0 0 0 0 0 0 0 0 0 0 0 -4 -4 0 -4 -19 0 0 0 0 0 0 0 0 -4 0
-2 -2 0 0 0 -2 0 0 0 0 0 0 0 0 0 0 0 -2 0 0 0 -1 -9 0 0 0 0 0 0 0 0 0 0 0 0 0 0 0 0 0 -1 0 0 0 0 0 0 0 0 0 0 0 0 0
0 0 0 0 0 0 0 0 0 0 0 0 0 0 0 0 0 0 0 0 0 0 0 0 0 0 0 0 0 0 0 -1 0 0 -1 0 0 0 0 0 0 0 0 0 0 0 0 0 0 0 0 0 0 0
0 0 0 0 0 0 0 0 0 0 0 0 0 0 0 0 0 0 0 0 -2 -1 0 0 0 0 0 0 0 0 0 0 0 0 0 0 0 0 0 -1 0 0 0 -17 -18 0 0 0 0 0 0 0 0 0
0 0 0 0 0 0 0 0 0 0 0 0 0 0 0 0 0 0 0 0 0 0 0 0 0 0 0 0 0 0 0 0 0 0 0 0 0 0 0 0 0 0 0 0 0 0 0 0 0 0 0 0 0 0
0 0 0 0 0 0 0 0 0 0 0 0 0 0 0 0 0 0 0 -1 0 -8 -16 -30 -31 0 0 0 0 0 0 0 0 0 0 0 0 0 0 0 0 0 0 0 0 0 0 0 0 0 0 0 0 0
0 0 0 0 0 0 0 0 0 0 0 0 0 0 0 0 0 0 0 0 0 -6 -13 -10 0 0 0 0 0 0 0 0 0 0 0 0 0 0 0 0 0 0 0 0 0 0 0 0 0 0 0 0 0 0
0 0 0 0 -1 -3 0 0 0 0 0 0 0 0 0 0 0 0 0 0 0 0 -9 0 0 0 0 0 0 0 0 0 0 0 0 0 0 0 0 0 0 0 0 0 0 0 0 0 0 0 0 0 0 0
0 0 -1 0 0 0 0 0 0 0 0 0 0 0 -5 -18 -14 -2 0 0 0 -2 0 0 0 0 0 0 0 0 0 0 0 0 0 0 0 0 0 0 0 0 0 0 0 0 0 0 0 0 0 0 0 0
-1 -1 0 0 0 0 0 0 0 0 0 0 0 0 0 -1 -2 -2 -3 0 0 0 0 0 0 0 0 0 0 0 0 0 0 0 0 0 0 0 0 0 0 0 0 0 0 0 0 0 0 0 0 0 0 -1
0 0 0 0 0 0 0 0 0 0 0 0 0 0 0 0 0 0 0 0 0 0 -5 0 0 0 0 0 0 0 0 0 0 0 0 0 0 0 0 0 0 0 0 0 0 0 0 0 0 0 0 0 0 0
0 0 0 0 0 0 0 0 0 0 0 0 0 0 0 0 0 0 0 -1 0 -1 -2 0 0 0 -3 0 -1 0 0 -2 0 0 0 0 0 0 0 0 0 0 -1 0 0 0 -6 -15 -15 0 0 0 0 0
Wind_Speed
10 12 13 13 13 12 12 14 16 15 14 15 15 15 15 14 13 9 4 3 7 5 10 7 9 9 6 4 5 6 7 4 5 9 11 6 10 4 5 3 3 9 11 9 10 11 14 5 6 6 6 6 6 8
11 12 12 12 12 13 13 14 14 14 14 13 13 14 14 14 12 10 3 1 3 6 8 9 13 14 11 7 7 1 5 3 5 6 2 4 6 3 6 4 4 5 5 6 4 6 6 2 5 3 1 7 8 9
11 12 11 11 12 12 13 13 13 13 14 14 14 13 12 12 12 7 5 4 3 6 8 7 3 3 6 13 12 6 4 1 4 4 4 6 6 5 7 8 3 4 1 4 4 5 4 6 6 3 5 7 7 10
10 11 11 12 13 14 14 14 14 15 14 15 15 15 13 12 11 9 3 1 3 4 6 3 2 2 1 5 10 13 6 1 3 1 1 4 6 3 5 5 7 3 6 5 3 6 6 6 7 9 11 10 11 11
11 12 11 13 13 14 15 14 15 16 16 16 17 16 15 14 12 7 4 4 5 4 6 7 13 2 4 8 8 10 11 4 4 4 2 1 8 4 4 4 9 7 7 7 1 7 3 9 9 11 13 12 13 15
10 10 11 12 13 14 14 14 16 17 17 18 19 19 18 15 10 4 5 4 5 3 4 5 5 2 1 3 11 9 8 7 5 3 3 3 14 11 5 5 6 4 1 6 5 7 6 10 10 9 12 12 12 14
9 10 12 13 13 14 15 16 17 18 19 20 20 19 16 8 5 4 6 2 5 3 4 5 3 5 2 3 6 7 9 6 7 8 8 7 6 8 10 9 7 2 2 3 4 9 8 8 7 10 12 12 12 14
10 10 11 12 14 15 16 17 18 19 21 22 20 14 12 7 5 4 3 7 5 3 4 4 3 4 2 2 4 4 7 8 7 7 7 9 10 8 10 9 10 5 4 2 4 2 4 9 11 12 12 13 15 14
11 11 11 12 13 15 16 18 20 20 21 21 15 3 4 4 1 3 4 5 4 3 4 2 4 2 1 3 2 4 5 8 6 10 12 8 11 11 7 11 10 8 8 6 8 5 6 11 11 12 12 13 14 14
11 10 11 12 14 15 16 19 19 19 21 15 6 5 3 2 6 5 4 3 3 3 3 5 3 5 6 3 2 4 5 7 7 11 8 15 14 15 13 11 7 6 8 5 9 10 9 10 11 13 13 11 12 15
10 9 11 12 13 15 16 17 16 20 10 2 4 3 5 3 4 3 2 3 3 4 5 3 4 5 4 6 5 3 3 4 6 6 12 9 14 17 21 17 13 12 10 10 10 6 9 9 12 13 12 12 14 16
10 9 9 11 13 15 16 15 14 10 7 9 7 6 4 4 3 4 3 4 5 1 1 3 4 4 4 3 5 3 4 3 6 5 5 11 11 12 13 18 19 16 13 11 9 8 8 10 12 13 12 14 14 14
12 10 10 11 12 14 15 12 12 13 13 2 3 3 2 2 2 5 5 3 2 2 4 3 4 4 3 3 6 3 6 6 2 5 6 7 5 3 7 10 9 11 13 12 10 9 9 11 13 15 14 14 15 15
12 12 11 12 13 13 14 13 13 11 6 2 3 2 4 3 5 1 3 1 3 4 7 7 6 4 4 3 3 5 4 3 5 5 4 4 4 2 3 3 11 13 13 14 13 12 14 15 13 15 16 15 16 14
13 11 11 14 13 12 11 12 12 7 3 3 4 4 5 2 2 1 3 5 4 5 7 7 5 2 3 5 6 4 6 6 4 1 3 5 1 4 6 7 10 12 12 13 14 14 15 15 14 15 15 16 15 13
11 9 10 10 6 6 8 11 5 2 2 3 4 5 3 5 2 3 5 5 5 6 8 3 2 3 4 3 2 6 5 1 4 4 5 3 2 4 7 9 11 12 13 13 14 15 16 16 17 17 15 13 15 15
12 4 4 5 4 9 6 5 2 3 3 4 3 4 5 5 5 5 6 6 6 4 3 2 2 6 5 3 3 4 4 6 4 6 6 1 3 5 7 11 11 13 14 15 15 16 16 15 11 10 12 13 15 12
5 6 6 2 5 3 2 3 2 3 4 4 5 1 2 6 7 7 4 4 3 3 2 2 5 5 2 3 3 5 7 9 6 4 5 3 4 7 10 10 12 14 16 17 17 15 14 13 13 9 12 12 12 10
8 8 6 1 4 3 2 1 3 4 4 4 5 4 5 6 7 5 6 7 6 6 4 3 4 2 3 3 5 6 6 4 6 6 2 5 7 7 12 13 14 16 17 15 15 12 9 9 8 8 10 10 9 8
12 10 6 2 5 1 2 1 2 4 4 3 5 4 5 6 6 5 7 6 3 2 3 3 2 3 3 5 5 7 5 6 4 5 6 6 7 9 11 14 12 15 13 12 9 8 9 9 8 6 4 5 8 8
8 6 6 5 1 2 3 2 3 3 5 3 4 6 4 4 4 3 3 2 2 1 2 2 3 5 6 5 4 2 4 5 8 6 7 8 7 10 10 13 15 10 9 8 7 7 8 7 6 4 6 7 8 7
6 6 2 2 2 1 3 2 4 5 4 4 4 3 4 4 3 3 4 2 2 2 2 3 4 3 5 8 7 8 8 11 11 9 10 10 10 10 10 10 10 9 8 7 8 7 7 5 4 4 7 5 5 7
7 4 2 2 1 1 3 1 3 2 3 2 3 3 3 2 3 4 2 3 3 4 4 4 5 6 7 10 13 13 12 13 10 9 10 9 9 9 9 9 8 10 10 7 7 6 8 7 8 7 5 5 7 8
1 1 1 1 1 2 2 2 2 2 2 2 2 2 4 4 4 4 3 3 4 5 5 7 5 6 9 11 10 10 9 9 11 10 8 11 10 10 10 9 9 8 7 6 5 6 6 7 6 5 6 7 7 6
1 1 1 1 2 1 2 3 2 2 2 2 2 3 3 3 4 4 6 6 7 7 6 8 9 9 10 9 9 10 11 9 10 10 6 8 9 8 8 8 8 7 7 7 6 7 7 6 6 7 7 7 7 6
1 2 1 1 1 2 2 2 1 2 2 2 4 2 2 4 5 6 4 9 10 10 10 10 7 7 9 7 7 6 4 2 7 11 9 8 9 9 10 10 9 7 5 6 7 9 9 9 9 9 8 8 3 2
1 2 1 2 2 2 3 3 3 3 2 3 1 2 4 5 6 4 3 4 3 3 5 5 5 7 8 8 7 7 9 10 10 10 9 9 9 9 7 8 9 6 5 6 6 7 8 8 8 7 5 3 3 2
1 1 2 1 2 3 3 4 2 4 3 1 3 5 4 4 3 4 4 4 6 6 6 6 7 8 8 8 8 7 8 8 9 10 10 10 9 9 10 9 9 11 8 7 5 6 6 5 4 3 3 2 2 3
2 2 3 3 5 3 6 5 5 4 5 7 9 8 4 3 4 3 4 4 4 6 7 7 6 6 7 8 8 7 6 7 8 10 11 9 8 7 6 6 6 6 6 6 11 10 8 4 3 2 0 2 0 1
3 3 7 11 5 7 8 8 13 14 12 12 10 10 6 4 4 2 5 6 8 7 7 6 7 7 7 8 9 10 9 8 8 7 7 8 7 6 5 6 5 5 5 5 6 6 2 4 3 4 3 3 4 5
6 9 18 16 15 13 13 12 10 9 11 11 11 10 10 7 7 7 7 5 5 6 9 10 9 9 9 9 8 9 9 8 10 11 8 7 7 7 6 5 5 4 4 4 3 2 2 3 3 4 5 6 7 7
12 15 14 19 14 12 11 11 11 9 9 10 10 10 12 11 12 7 7 7 8 8 8 9 9 8 8 8 8 7 6 7 6 6 6 6 6 5 4 3 2 2 2 3 3 5 5 6 7 8 9 11 12 13
12 12 12 12 11 11 8 6 7 8 9 9 10 8 9 9 8 3 5 6 7 7 6 6 6 6 5 6 6 5 4 7 7 5 3 3 5 5 5 2 2 4 5 7 7 6 7 10 11 13 13 13 14 14
Wind_Direction
345 339 336 337 334 348 349 347 344 341 339 339 338 342 344 348 353 339 313 339 316 299 294 279 294 301 309 266 292 41 253 140 254 253 245 169 258 200 243 3 246 214 219 219 237 259 243 111 154 253 50 89 118 117
334 330 328 325 329 332 333 330 328 329 335 334 333 338 337 339 343 340 303 310 326 267 307 314 289 288 283 309 323 298 24 74 30 282 291 321 229 181 261 194 165 244 334 318 329 36 64 58 40 88 99 123 112 116
322 321 328 333 328 328 326 323 323 325 326 326 335 327 333 328 332 327 302 313 256 254 260 236 228 97 240 239 252 287 136 68 86 63 333 323 291 330 216 217 279 148 222 255 190 145 116 120 139 146 138 110 107 115
308 317 326 323 321 320 319 318 325 325 328 327 324 325 322 323 319 312 267 286 285 306 286 100 171 218 355 260 221 230 294 128 50 331 295 298 292 4 271 338 258 14 169 221 173 139 145 147 110 117 103 105 106 102
304 309 315 318 330 332 329 327 327 325 325 326 318 322 321 318 313 293 246 229 235 292 322 312 301 49 278 217 224 217 217 242 215 192 160 267 312 304 210 295 244 180 218 227 290 125 216 151 137 134 131 128 123 122
309 323 324 322 324 326 326 323 328 326 322 321 318 315 313 307 296 253 188 177 201 214 273 298 14 234 7 193 205 197 198 215 231 209 168 169 271 280 254 242 67 8 22 343 78 87 85 118 140 144 134 135 135 131
309 313 318 323 324 326 326 328 327 324 321 319 316 310 306 291 243 289 18 48 141 202 257 290 262 121 294 229 186 201 205 208 229 215 236 185 235 236 271 264 101 88 33 74 106 124 108 161 159 145 135 128 135 124
308 311 312 323 330 331 330 328 326 323 321 320 319 316 307 185 249 227 113 190 212 266 268 288 280 219 0 235 200 194 194 204 207 234 230 226 205 226 245 245 272 250 269 226 179 196 337 165 145 139 147 148 138 137
296 306 320 322 324 328 330 329 326 322 320 322 320 309 180 244 139 69 4 336 190 293 296 254 299 25 330 246 203 217 226 210 222 219 231 234 234 222 224 243 249 235 237 246 178 182 167 166 156 147 159 161 143 144
290 304 314 324 329 331 334 333 330 325 319 307 260 206 168 87 351 292 149 186 197 200 242 268 272 287 326 298 225 195 224 236 207 218 223 221 239 243 224 237 236 214 222 227 189 189 189 178 167 173 167 163 154 148
277 293 309 321 326 332 336 340 340 322 291 337 344 342 359 351 223 218 224 216 169 222 210 258 324 294 311 286 305 239 232 234 240 220 212 221 228 227 230 237 224 230 219 217 220 219 203 185 176 171 168 160 149 147
267 281 300 315 322 325 329 332 334 333 353 327 305 294 273 242 216 237 218 178 217 323 71 240 231 236 265 242 267 233 245 244 250 127 226 236 239 222 224 222 226 223 211 198 182 193 176 171 169 165 156 145 138 131
262 275 291 303 312 317 322 322 333 327 299 188 235 249 243 190 245 235 190 190 117 209 231 226 285 221 215 237 252 238 243 225 102 211 226 231 85 148 222 232 179 184 182 157 161 162 158 148 144 140 130 127 126 122
259 269 284 296 302 307 313 311 330 328 273 269 278 258 238 187 244 266 64 73 266 262 296 316 298 253 191 221 298 269 265 255 239 225 222 56 22 140 129 198 161 164 151 149 148 143 141 141 132 126 123 125 121 123
247 259 277 280 282 297 295 305 312 289 278 269 237 247 225 288 303 34 322 278 255 289 311 307 266 297 270 219 198 250 239 229 243 22 58 351 42 132 169 164 152 141 142 138 135 132 128 122 119 117 117 119 122 131
227 260 255 272 277 281 309 292 263 263 244 253 249 255 256 259 237 235 241 289 326 343 317 249 13 314 267 251 164 246 257 346 43 17 344 95 120 150 147 140 133 136 130 130 129 126 122 123 124 127 137 149 162 167
197 231 206 218 284 295 283 270 248 245 269 249 238 247 273 289 290 304 301 297 10 326 271 295 212 234 239 200 248 252 8 345 329 321 340 80 143 148 148 138 127 124 122 122 124 121 119 120 114 128 146 165 153 146
199 180 200 236 298 277 199 243 261 262 258 254 275 355 264 286 285 283 298 322 303 280 263 263 292 251 291 324 2 2 334 327 301 291 299 278 176 132 126 124 120 124 125 124 117 118 124 130 142 155 144 128 120 116
161 147 159 127 334 306 302 209 281 276 272 306 288 269 285 288 285 300 277 273 250 237 272 249 259 304 351 350 323 313 304 287 304 301 198 130 113 114 118 112 121 118 117 120 124 130 137 127 119 118 149 157 147 138
141 151 158 146 289 276 256 223 240 274 283 351 282 304 311 296 311 281 273 267 246 238 238 243 287 315 283 301 301 295 283 281 263 93 76 93 99 104 116 121 114 114 109 106 107 116 119 123 140 137 88 112 130 128
143 129 156 245 102 296 290 296 257 277 318 285 325 332 299 283 265 276 301 320 261 306 283 316 296 318 312 312 305 317 22 57 69 64 91 84 93 92 104 115 108 114 114 117 112 96 107 112 103 102 119 108 129 155
106 165 171 152 255 208 264 238 298 324 270 310 321 307 275 288 325 349 315 304 303 300 294 337 333 12 33 24 32 49 64 65 74 76 71 80 86 89 90 105 114 104 96 97 99 96 83 73 79 82 83 111 121 118
162 200 139 174 264 207 281 278 272 240 273 309 309 271 261 304 351 302 356 343 343 1 20 25 15 40 58 56 55 48 55 69 67 67 71 71 73 81 86 89 99 104 95 74 84 92 98 73 62 67 63 102 107 120
271 25 276 186 197 285 297 278 269 299 312 288 282 302 16 1 343 22 9 2 340 5 23 25 23 58 59 46 44 41 51 70 70 54 54 77 73 69 79 82 80 73 83 97 90 93 96 89 102 119 140 139 124 120
271 51 246 269 291 285 264 274 270 266 276 272 8 24 21 10 29 26 7 11 27 31 40 53 50 50 60 54 47 44 31 56 74 73 58 71 83 83 88 98 103 111 129 129 118 106 108 135 137 130 124 119 115 111
328 157 188 176 248 242 304 283 283 305 286 46 38 30 31 47 40 33 31 24 32 35 37 34 34 52 52 46 57 42 1 14 86 75 75 91 101 107 115 118 111 92 91 116 134 138 141 140 135 130 115 102 109 193
24 57 14 5 333 309 272 252 252 276 32 62 47 57 41 54 45 34 13 353 354 351 11 22 3 36 47 60 72 65 64 69 74 74 73 66 54 47 62 82 85 86 92 104 119 128 132 137 143 146 145 149 117 125
329 305 286 329 247 217 257 237 94 40 56 42 51 47 55 57 86 145 102 117 75 56 59 57 52 53 61 68 72 81 91 100 102 98 89 76 70 72 73 75 70 42 63 57 95 123 132 139 144 154 171 222 196 213
287 217 240 253 201 200 28 31 31 43 57 82 102 94 91 98 116 88 68 96 137 100 85 72 73 86 86 77 67 62 58 72 82 87 89 91 91 82 84 88 88 85 91 97 51 38 41 41 45 41 301 278 305 258
59 224 64 69 55 46 59 86 88 86 84 87 99 114 109 90 45 34 93 86 78 73 80 68 69 69 73 79 75 68 61 52 47 68 84 88 94 102 101 96 91 88 93 102 107 117 84 198 144 203 243 252 250 259
110 100 94 100 95 92 95 98 101 110 110 101 90 89 92 108 94 65 65 70 85 74 72 70 65 65 64 59 66 80 77 67 66 64 69 88 89 89 90 93 95 86 77 70 74 78 121 242 272 274 264 271 281 267
101 95 94 93 96 112 118 112 111 108 100 87 89 99 100 91 86 69 1 80 91 87 57 71 75 72 75 82 82 78 46 78 86 90 75 79 86 85 101 94 91 51 331 305 289 280 260 265 283 290 292 289 287 288
96 102 104 106 106 108 108 96 88 81 93 89 84 85 77 75 69 82 75 38 39 49 50 57 66 74 66 54 53 74 72 72 69 57 69 36 12 350 315 285 264 276 281 281 289 300 301 289 286 285 289 291 292 292